Reflectivity
2 14 8 -19 -20 -20 -20 -20 -20 -20 -20 -20 -20 -20 -20 -20 -20 -20 -20 -20 -20 -20
-18 -20 -20 -20 -20 -20 -20 -20 -20 -20 -20 -20 -20 -20 -20 -20 -20 -20 -20 -20 -20 -20
-20 -20 -20 -20 -20 -20 -20 -20 -20 -20 -20 -20 -20 -20 -20 -20 -20 -20 -20 -20 -20 -20
-20 -20 -20 -20 -20 -20 -20 -20 -20 -20 -20 -20 -20 -20 -20 -20 -20 -20 -20 -20 -20 -20
-20 -20 -20 -20 -20 -20 -20 -20 -20 -20 -20 -20 -20 -20 -20 -20 -20 -20 -20 -20 -20 -5
-20 -20 -20 -20 -20 -20 -20 -20 -20 -20 -20 -20 -20 -20 -20 -20 -20 -20 -20 -20 -20 -20
-20 -20 -20 -20 -20 -20 -20 -20 -20 -20 -20 -20 -20 -20 -20 -20 -20 -20 -20 -20 -20 -20
-20 -20 -20 -20 -20 -20 -20 -20 -20 -20 -20 -20 -20 -20 -20 -20 -20 -20 -20 -20 -20 -20
-20 -20 -20 -20 -20 -20 -20 -20 -20 -20 -20 -20 -20 -20 -20 -20 -20 -20 -20 -20 -20 -20
-20 -20 -20 -20 -20 -20 -20 -20 -20 -20 -20 -20 -20 -20 -20 -20 -20 -20 -20 -20 -20 -20
-20 -20 -20 -20 -20 -20 -20 -20 -20 -20 -20 -20 -20 -20 -20 -20 -20 -20 -20 -9 -20 -20
-20 -20 -20 -20 -20 -20 -20 -20 -20 -20 -20 -20 -20 -20 -20 -20 -20 -20 -20 -20 -16 -4
-20 -20 -20 -20 -20 -20 -20 -20 -20 -20 -20 -20 -20 -20 -20 -20 -20 -12 -16 -20 -18 -1
-20 -20 -20 -20 -20 -20 -20 -20 -20 -20 -20 -20 -20 -20 -20 -20 -20 -20 -20 -20 -20 -20
Wind_Speed
10 6 6 7 5 5 6 7 9 8 8 8 8 8 7 6 7 8 8 12 11 10
11 11 9 9 8 6 8 7 8 8 8 9 9 9 9 7 8 8 9 10 11 10
11 11 9 9 10 9 7 7 7 8 8 9 9 9 9 8 9 10 8 8 11 11
10 10 9 8 7 7 6 7 7 8 8 9 10 10 10 11 11 12 12 12 12 14
9 8 8 8 8 7 7 7 8 8 9 10 10 11 11 12 12 13 14 14 14 15
9 8 8 7 7 7 7 7 7 8 8 9 9 10 10 10 12 12 13 14 15 16
8 7 7 7 7 7 6 6 6 6 7 8 9 9 9 11 12 12 12 14 15 16
7 7 6 6 6 5 6 7 8 8 8 9 9 7 13 14 14 14 15 15 15 15
6 5 5 5 6 6 7 8 8 9 10 11 8 14 18 16 14 15 16 16 16 16
5 5 6 7 7 9 9 10 10 10 10 11 12 16 20 21 14 15 14 15 16 16
5 6 7 8 8 9 9 10 10 10 11 12 11 18 21 23 17 15 16 16 15 17
6 7 7 8 9 9 10 10 10 10 12 12 13 18 19 19 14 16 17 16 18 17
7 7 7 8 8 8 8 9 9 11 10 13 13 15 19 17 10 16 14 16 16 21
5 5 6 7 7 8 10 10 11 12 11 13 12 14 19 19 11 12 13 14 14 12
Wind_Direction
82 81 79 65 64 54 46 32 16 5 357 351 342 328 313 301 289 282 274 271 264 263
77 75 76 71 64 54 42 23 14 7 359 354 348 343 333 316 308 299 289 281 278 271
79 74 70 66 60 52 43 27 13 6 359 352 347 342 335 324 316 309 300 293 288 284
85 83 77 67 56 44 35 19 11 1 351 346 342 341 334 326 320 312 304 296 292 288
76 69 65 58 48 32 23 14 4 355 351 346 342 339 335 329 325 322 318 313 305 302
64 55 51 45 32 23 14 8 359 351 345 337 333 330 328 330 322 315 310 306 303 297
60 48 35 27 20 11 358 348 345 338 330 327 326 325 337 326 318 311 307 304 300 297
48 41 29 18 5 352 350 347 342 337 334 331 327 331 331 327 321 315 312 307 303 299
44 32 18 2 354 359 355 351 344 344 336 329 326 327 325 324 318 314 312 311 307 304
29 18 6 1 360 358 353 345 341 336 330 324 319 320 321 320 312 310 304 304 301 297
18 12 5 1 360 352 344 336 330 326 323 319 316 320 320 319 310 306 307 309 300 298
12 3 358 358 349 340 331 326 326 323 320 315 312 316 317 320 314 307 310 309 306 297
1 352 349 344 334 324 317 313 318 315 307 308 304 310 318 322 316 312 308 306 301 301
344 335 335 329 322 321 324 315 315 313 310 304 307 312 316 316 309 304 305 303 309 308